Location: ?????????
(38.5999°N, 22.7695°E)
Time: 15:21:50
(UTC+00:00)

Cosmos 1025 Rocket - Pass Details

Date: 23 May 2024
Orbit: 589 x 615 km, 82.5° (Epoch: 23 June)

Event Time Altitude Azimuth Distance (km) Brightness Sun altitude
Exits shadow 02:38:32 - 210° (SSW) 2,418 5.5 -6.3°
Reaches altitude 10° 02:39:44 10° 216° (SW) 1,967 5.1 -6.1°
Maximum altitude 02:43:44 35° 282° (WNW) 998 3.8 -5.4°
Drops below altitude 10° 02:47:47 10° 349° (N) 1,982 5.9 -4.8°
Sets 02:50:10 0° 358° (N) 2,891 6.9 -4.4°
